Regional Weather Roundup
Issued by NWS

Home | Current Version | Previous Version | Graphics & Text | Print | Product List | Glossary On
Versions: 1 2 3 4 5 6 7 8 9 10 11 12 13 14 15 16 17 18 19 20 21 22 23 24 25 26 27 28 29 30 31 32 33 34 35 36 37 38 39 40 41 42 43 44 45 46 47 48 49 50
000
ASUS43 KFSD 301602
RWRSD

WEATHER ROUNDUP FOR SOUTH DAKOTA
NATIONAL WEATHER SERVICE SIOUX FALLS SD
1100 AM CDT WED JUL 30 2014

NOTE: "FAIR" INDICATES FEW OR NO CLOUDS BELOW 12,000 FEET WITH NO
SIGNIFICANT WEATHER AND/OR OBSTRUCTIONS TO VISIBILITY.


SDZ001>005-009-010-012>017-301700-
NORTHWEST AND NORTH CENTRAL SOUTH DAKOTA

CITY           SKY/WX    TMP DP  RH WIND       PRES   REMARKS
BUFFALO          N/A     75  54  47 N10       30.14F
FAITH            N/A     72  55  55 NW7       30.16S
MOBRIDGE       FAIR      75  58  55 S6        30.13F
$$

SDZ012>016-024>037-041>051-057-063-072>074-301700-
SOUTHWEST AND SOUTH CENTRAL SOUTH DAKOTA

CITY           SKY/WX    TMP DP  RH WIND       PRES   REMARKS
RAPID CTY ARPT FAIR      76  54  46 CALM      30.21S
PIERRE         FAIR      76  59  55 S7        30.14F
CUSTER         FAIR      71  45  39 NW7       30.33S
ELLSWORTH AFB  FAIR      76  55  47 NE5       30.21S
PHILIP         FAIR      78  53  41 W8        30.16F
PINE RIDGE     FAIR      72  57  59 W10       30.24S
WINNER         FAIR      77  52  41 VRB3      30.18S
$$

SDZ004>011-016>023-039-040-301700-
NORTHEAST SOUTH DAKOTA

CITY           SKY/WX    TMP DP  RH WIND       PRES   REMARKS
ABERDEEN       FAIR      73  54  51 CALM      30.16S
WATERTOWN      FAIR      71  54  54 NW8       30.17S
SISSETON         N/A     76  57  51 N5        30.14S
$$

SDZ017-020-022-023-036>040-048>070-301700-
SOUTHEAST SOUTH DAKOTA

CITY           SKY/WX    TMP DP  RH WIND       PRES   REMARKS
SIOUX FALLS    FAIR      74  56  53 N6        30.17S
HURON          FAIR      74  55  51 CALM      30.16S
CHAMBERLAIN    FAIR      76  55  49 S6        30.17S
MITCHELL       FAIR      74  56  53 CALM      30.17S
YANKTON        FAIR      72  57  60 CALM      30.17S
$$

ABBREVIATIONS USED IN REMARKS
   TC - TEMPERATURE IN CELSIUS
  WCI - WIND CHILL INDEX
   HX - HEAT INDEX
  VSB - VISIBILITY




USA.gov is the U.S. government's official web portal to all federal, state and local government web resources and services.